Location: St. Louis
(38.6270°N, 90.1994°W)
Time: 11:24:37
(UTC-06:00)

Tiros 1 - Visible Passes

Search period start: 30 November 2021 00:00
Search period end: 10 December 2021 00:00
Orbit: 630 x 664 km, 48.4° (Epoch: 30 November)

Date Brightness Start Highest point End Pass type
(mag) Time Alt. Az. Time Alt. Az. Time Alt. Az.
30 Nov 9.2 17:38:13 10° SSE 17:39:59 12° SE 17:41:32 10° ESE visible
30 Nov 8.7 19:16:51 10° SW 19:19:13 30° SW 19:19:13 30° SW visible
01 Dec 8.2 18:01:29 10° SSW 18:05:27 29° SE 18:06:43 25° ESE visible
01 Dec 9.5 19:42:49 10° WSW 19:44:24 21° WSW 19:44:24 21° WSW visible
02 Dec 7.1 18:26:34 10° SW 18:31:09 65° SE 18:31:49 56° E visible
02 Dec 10.3 20:09:16 10° W 20:09:29 11° W 20:09:29 11° W visible
03 Dec 8.4 17:11:19 10° S 17:15:09 26° SE 17:19:02 10° ENE visible
03 Dec 7.4 18:52:27 10° WSW 18:56:51 62° NW 18:56:51 62° NW visible
04 Dec 7.3 17:36:16 10° SW 17:40:49 59° SE 17:44:09 18° ENE visible
04 Dec 8.7 19:18:52 10° W 19:21:49 30° WNW 19:21:49 30° WNW visible
05 Dec 7.3 18:02:05 10° WSW 18:06:43 68° NNW 18:09:04 28° NE visible
05 Dec 9.7 19:45:30 10° WNW 19:46:43 16° WNW 19:46:43 16° WNW visible
06 Dec 8.0 18:28:27 10° W 18:32:49 39° NNW 18:33:55 34° NNE visible
07 Dec 7.3 17:11:45 10° WSW 17:16:21 73° NNW 17:21:02 10° NE visible
07 Dec 8.6 18:55:05 10° WNW 18:58:45 28° NNW 18:58:45 28° NNW visible
08 Dec 8.0 17:38:03 10° W 17:42:26 41° NNW 17:45:54 15° NE visible
08 Dec 9.3 19:21:41 10° WNW 19:23:33 19° NW 19:23:33 19° NW visible
09 Dec 8.4 18:04:40 10° WNW 18:08:43 28° NNW 18:10:41 21° NNE visible
09 Dec 10.0 19:48:00 10° NW 19:48:21 12° NW 19:48:21 12° NW visible
